📊 Raw Sensor Data

Showing records 32751 to 32775 of 84,726 total

ID Distance (ft) Battery V Battery A Int Temp (°F) Int Humid (%) Ext Temp (°F) Solar V RSSI SNR Time Stamp
51988 15.0 4.02 0 102 42 90 5.10 -74 7 09/14/2025 03:15 PM
51987 15.0 4.02 0 101 41 87 5.20 -72 8 09/14/2025 03:00 PM
51986 15.0 4.02 0 100 41 84 5.10 -74 8 09/14/2025 02:45 PM
51985 15.0 4.02 0 98 42 83 5.10 -74 8 09/14/2025 02:30 PM
51984 15.0 4.03 0 97 41 83 5.10 -73 7 09/14/2025 02:15 PM
51983 15.0 4.02 0 98 40 83 5.10 -74 7 09/14/2025 02:00 PM
51982 15.0 4.02 0 96 40 86 5.10 -76 8 09/14/2025 01:45 PM
51981 15.0 4.02 0 94 41 81 5.10 -75 7 09/14/2025 01:30 PM
51980 15.1 4.05 0 93 41 83 5.10 -74 8 09/14/2025 01:15 PM
51979 15.1 4.02 0 92 41 83 5.10 -76 8 09/14/2025 01:00 PM
51978 14.9 4.02 0 90 41 83 5.10 -75 8 09/14/2025 12:45 PM
51977 15.1 4.03 0 88 41 82 5.10 -74 7 09/14/2025 12:30 PM
51976 15.0 4.02 0 86 42 79 5.10 -73 8 09/14/2025 12:15 PM
51975 15.0 4.02 0 85 42 79 5.10 -73 8 09/14/2025 12:00 PM
51974 15.0 4.02 5 86 41 81 5.10 -73 7 09/14/2025 11:45 AM
51973 15.1 4.02 0 85 41 84 5.10 -73 8 09/14/2025 11:30 AM
51972 14.0 4.02 5 83 41 82 5.10 -75 7 09/14/2025 11:15 AM
51971 15.0 4.02 5 81 41 80 5.10 -73 8 09/14/2025 11:00 AM
51970 15.1 4.02 5 79 41 78 5.10 -75 7 09/14/2025 10:45 AM
51969 15.1 4.02 5 78 41 77 5.10 -75 7 09/14/2025 10:30 AM
51968 15.1 4.02 5 76 41 78 5.10 -74 8 09/14/2025 10:15 AM
51967 15.0 4.02 0 74 41 77 5.10 -73 8 09/14/2025 10:00 AM
51966 15.1 4.01 5 72 41 76 5.10 -74 8 09/14/2025 09:45 AM
51965 15.0 4.01 0 70 41 74 5.10 -75 8 09/14/2025 09:30 AM
51964 15.0 4.14 0 69 41 73 5.10 -73 7 09/14/2025 09:15 AM